Kearney, NE

1:54 AM CDT on March 25, 2017 (GMT -0500)
Kearney Municipal

Weather History for KEAR - January, 2013

Change the Weather History Date:

Wednesday, January 2, 2013

  Actual Average Record
Temperature  
Mean Temperature 22 °F 24 °F  
Max Temperature 34 °F 35 °F 74 °F (1997)
Min Temperature 10 °F 13 °F -16 °F (1911)
Degree Days  
Heating Degree Days 43 41  
Month to date heating degree days 82  
Cooling Degree Days 0 0  
Month to date cooling degree days 0  
Moisture  
Dew Point 19 °F    
Average Humidity 82    
Maximum Humidity 100    
Minimum Humidity 64    
Precipitation  
Precipitation 0.00 in - 0.60 in (1937)
Sea Level Pressure  
Sea Level Pressure 30.11 in    
Wind  
Wind Speed 10 mph (West)    
Max Wind Speed 18 mph    
Max Gust Speed 20 mph    
Visibility 10 miles    
Events      
T = Trace of Precipitation, MM = Missing Value Source: NWS Daily Summary

Daily Weather History Graph

Daily Weather History Graph

Search for Another Location

Airport or City:

Trip Planner

Search our weather history database for the weather conditions in past years. The results will help you decide how hot, cold, wet, or windy it might be!

Date:

Astronomy

Jan. 02, 2013 Rise Set
Actual Time 8:00 AM CST 5:20 PM CST
Civil Twilight 7:29 AM CST 5:51 PM CST
Nautical Twilight 6:55 AM CST 6:25 PM CST
Astronomical Twilight 6:21 AM CST 6:58 PM CST
Moon 10:56 PM CST (1/2) 10:40 AM CST (1/2)
Length of Visible Light 10h 21m
Length of Day
9h 20m
Waning Gibbous, 75% of the Moon is Illuminated
Jan 2
Waning Gibbous
Jan 4
Last Quarter
Jan 11
New
Jan 18
First Quarter
Jan 26
Full

Hourly Weather History & Observations

Time (CST) Temp. Windchill Dew Point Humidity Pressure Visibility Wind Dir Wind Speed Gust Speed Precip Events Conditions
12:15 AM 15.8 °F 2.7 °F 10.4 °F 79% 30.07 in 10.0 mi SW 11.5 mph - N/A   Clear
12:35 AM 17.6 °F 5.7 °F 12.2 °F 79% 30.06 in 10.0 mi SW 10.4 mph - N/A   Clear
12:55 AM 17.6 °F 6.4 °F 10.4 °F 73% 30.06 in 10.0 mi SSW 9.2 mph - N/A   Clear
1:15 AM 15.8 °F 2.7 °F 8.6 °F 73% 30.05 in 10.0 mi SW 11.5 mph - N/A   Clear
1:35 AM 17.6 °F 5.0 °F 12.2 °F 79% 30.05 in 10.0 mi SW 11.5 mph - N/A   Clear
1:55 AM 15.8 °F 5.1 °F 10.4 °F 79% 30.04 in 10.0 mi WSW 8.1 mph - N/A   Clear
2:15 AM 17.6 °F 9.3 °F 8.6 °F 68% 30.05 in 10.0 mi WSW 5.8 mph - N/A   Clear
2:35 AM 17.6 °F 6.4 °F 12.2 °F 79% 30.04 in 10.0 mi WSW 9.2 mph - N/A   Clear
2:55 AM 17.6 °F 5.7 °F 8.6 °F 68% 30.04 in 10.0 mi WSW 10.4 mph - N/A   Clear
3:15 AM 17.6 °F 5.0 °F 12.2 °F 79% 30.04 in 10.0 mi West 11.5 mph - N/A   Clear
3:35 AM 17.6 °F 8.2 °F 10.4 °F 73% 30.04 in 10.0 mi West 6.9 mph - N/A   Clear
3:55 AM 17.6 °F 7.3 °F 8.6 °F 68% 30.04 in 10.0 mi WSW 8.1 mph - N/A   Clear
4:15 AM 17.6 °F 6.4 °F 10.4 °F 73% 30.04 in 10.0 mi West 9.2 mph - N/A   Clear
4:35 AM 12.2 °F -0.2 °F 8.6 °F 85% 30.04 in 10.0 mi West 9.2 mph - N/A   Clear
4:55 AM 10.4 °F -2.4 °F 8.6 °F 92% 30.04 in 10.0 mi West 9.2 mph - N/A   Clear
5:15 AM 12.2 °F 0.7 °F 10.4 °F 92% 30.05 in 10.0 mi West 8.1 mph - N/A   Clear
5:35 AM 14.0 °F 2.9 °F 10.4 °F 86% 30.05 in 10.0 mi West 8.1 mph - N/A   Mostly Cloudy
5:55 AM 15.8 °F 3.4 °F 10.4 °F 79% 30.05 in 10.0 mi West 10.4 mph - N/A   Overcast
6:15 AM 17.6 °F 5.7 °F 15.8 °F 93% 30.05 in 10.0 mi West 10.4 mph - N/A   Overcast
6:35 AM 17.6 °F 5.7 °F 14.0 °F 86% 30.05 in 10.0 mi West 10.4 mph - N/A   Overcast
6:55 AM 19.4 °F 8.6 °F 17.6 °F 93% 30.05 in 9.0 mi West 9.2 mph - N/A   Overcast
7:15 AM 23.0 °F 11.7 °F 19.4 °F 86% 30.06 in 10.0 mi West 11.5 mph - N/A   Overcast
7:35 AM 23.0 °F 13.9 °F 19.4 °F 86% 30.06 in 7.0 mi West 8.1 mph - N/A   Overcast
7:55 AM 24.8 °F 14.6 °F 24.8 °F 100% 30.06 in 3.0 mi West 10.4 mph - N/A   Overcast
8:15 AM 24.8 °F 16.1 °F 21.2 °F 86% 30.07 in 9.0 mi West 8.1 mph - N/A   Overcast
8:35 AM 24.8 °F 14.6 °F 21.2 °F 86% 30.07 in 10.0 mi West 10.4 mph - N/A   Overcast
8:55 AM 24.8 °F 14.6 °F 21.2 °F 86% 30.08 in 10.0 mi West 10.4 mph - N/A   Overcast
9:15 AM 24.8 °F 16.1 °F 21.2 °F 86% 30.09 in 10.0 mi West 8.1 mph - N/A   Overcast
9:35 AM 26.6 °F 17.5 °F 23.0 °F 86% 30.09 in 10.0 mi West 9.2 mph - N/A   Mostly Cloudy
9:55 AM 26.6 °F 16.8 °F 24.8 °F 93% 30.10 in 10.0 mi West 10.4 mph - N/A   Mostly Cloudy
10:15 AM 26.6 °F 16.8 °F 24.8 °F 93% 30.11 in 10.0 mi West 10.4 mph - N/A   Mostly Cloudy
10:35 AM 28.4 °F 19.1 °F 26.6 °F 93% 30.12 in 10.0 mi West 10.4 mph - N/A   Mostly Cloudy
10:55 AM 30.2 °F 20.8 °F 26.6 °F 86% 30.12 in 10.0 mi West 11.5 mph - N/A   Overcast
11:15 AM 30.2 °F 21.9 °F 26.6 °F 86% 30.11 in 10.0 mi West 9.2 mph - N/A   Mostly Cloudy
11:35 AM 30.2 °F 21.9 °F 26.6 °F 86% 30.11 in 10.0 mi West 9.2 mph - N/A   Partly Cloudy
11:55 AM 32.0 °F 24.2 °F 26.6 °F 80% 30.10 in 10.0 mi West 9.2 mph - N/A   Scattered Clouds
12:15 PM 33.8 °F 26.4 °F 26.6 °F 75% 30.10 in 10.0 mi West 9.2 mph - N/A   Overcast
12:35 PM 33.8 °F 25.3 °F 26.6 °F 75% 30.09 in 10.0 mi West 11.5 mph - N/A   Overcast
12:55 PM 33.8 °F 25.3 °F 26.6 °F 75% 30.09 in 10.0 mi West 11.5 mph - N/A   Overcast
1:15 PM 33.8 °F 23.2 °F 24.8 °F 70% 30.08 in 10.0 mi WNW 17.3 mph - N/A   Overcast
1:35 PM 33.8 °F 24.8 °F 26.6 °F 75% 30.08 in 10.0 mi West 12.7 mph 16.1 mph N/A   Overcast
1:55 PM 33.8 °F 25.8 °F 24.8 °F 70% 30.08 in 10.0 mi West 10.4 mph - N/A   Overcast
2:15 PM 33.8 °F 25.3 °F 24.8 °F 70% 30.08 in 10.0 mi WNW 11.5 mph 18.4 mph N/A   Overcast
2:35 PM 33.8 °F 24.8 °F 24.8 °F 70% 30.08 in 10.0 mi WNW 12.7 mph - N/A   Overcast
2:55 PM 33.8 °F 22.8 °F 24.8 °F 70% 30.09 in 10.0 mi West 18.4 mph - N/A   Overcast
3:15 PM 33.8 °F 23.9 °F 24.8 °F 70% 30.10 in 10.0 mi WNW 15.0 mph 20.7 mph N/A   Overcast
3:35 PM 33.8 °F 24.8 °F 21.2 °F 60% 30.11 in 10.0 mi WNW 12.7 mph - N/A   Overcast
3:55 PM 33.8 °F 24.8 °F 23.0 °F 65% 30.11 in 10.0 mi WNW 12.7 mph 19.6 mph N/A   Overcast
4:15 PM 33.8 °F 24.3 °F 21.2 °F 60% 30.12 in 10.0 mi WNW 13.8 mph - N/A   Overcast
4:35 PM 33.8 °F 23.9 °F 23.0 °F 65% 30.12 in 10.0 mi WNW 15.0 mph 19.6 mph N/A   Overcast
4:55 PM 30.2 °F 20.2 °F 21.2 °F 69% 30.13 in 10.0 mi WNW 12.7 mph - N/A   Overcast
5:15 PM 30.2 °F 21.9 °F 21.2 °F 69% 30.14 in 10.0 mi WNW 9.2 mph - N/A   Overcast
5:35 PM 30.2 °F 23.4 °F 21.2 °F 69% 30.14 in 10.0 mi WNW 6.9 mph - N/A   Overcast
5:55 PM 28.4 °F 23.3 °F 21.2 °F 74% 30.15 in 10.0 mi NW 4.6 mph - N/A   Overcast
6:15 PM 28.4 °F 23.3 °F 21.2 °F 74% 30.15 in 10.0 mi WNW 4.6 mph - N/A   Overcast
6:35 PM 28.4 °F 21.2 °F 21.2 °F 74% 30.16 in 10.0 mi West 6.9 mph - N/A   Overcast
6:55 PM 28.4 °F 22.2 °F 21.2 °F 74% 30.16 in 10.0 mi West 5.8 mph - N/A   Overcast
7:15 PM 28.4 °F 21.2 °F 21.2 °F 74% 30.17 in 10.0 mi West 6.9 mph - N/A   Overcast
7:35 PM 28.4 °F 22.2 °F 23.0 °F 80% 30.18 in 10.0 mi West 5.8 mph - N/A   Overcast
7:55 PM 28.4 °F 21.2 °F 23.0 °F 80% 30.18 in 10.0 mi WNW 6.9 mph - N/A   Overcast
8:15 PM 28.4 °F 21.2 °F 23.0 °F 80% 30.18 in 10.0 mi West 6.9 mph - N/A   Overcast
8:35 PM 30.2 °F 23.4 °F 23.0 °F 75% 30.19 in 10.0 mi WNW 6.9 mph - N/A   Overcast
8:55 PM 28.4 °F 20.4 °F 23.0 °F 80% 30.19 in 10.0 mi West 8.1 mph - N/A   Overcast
9:15 PM 26.6 °F 15.2 °F 21.2 °F 80% 30.20 in 10.0 mi West 13.8 mph - N/A   Scattered Clouds
9:35 PM 26.6 °F 16.2 °F 21.2 °F 80% 30.21 in 10.0 mi West 11.5 mph - N/A   Clear
9:55 PM 26.6 °F 15.7 °F 19.4 °F 74% 30.23 in 10.0 mi WNW 12.7 mph - N/A   Clear
10:15 PM 24.8 °F 14.0 °F 19.4 °F 80% 30.23 in 10.0 mi WNW 11.5 mph - N/A   Clear
10:35 PM 23.0 °F 12.4 °F 17.6 °F 80% 30.24 in 10.0 mi West 10.4 mph - N/A   Clear
10:55 PM 21.2 °F 10.1 °F 17.6 °F 86% 30.25 in 10.0 mi WNW 10.4 mph - N/A   Clear
11:15 PM 21.2 °F 10.1 °F 17.6 °F 86% 30.25 in 10.0 mi WNW 10.4 mph - N/A   Clear
11:35 PM 21.2 °F 8.9 °F 17.6 °F 86% 30.25 in 10.0 mi WNW 12.7 mph - N/A   Clear
11:55 PM 21.2 °F 10.1 °F 15.8 °F 80% 30.25 in 10.0 mi WNW 10.4 mph - N/A   Clear